Voltar ao catálogo

COSMOS 2490

AtivoNavegaçãoPO
NORAD 39485·PAYLOAD·🇷🇺 Russia

Lançado Dec 25, 2013 de Plesetsk Cosmodrome

Loading…

Próximas Passagens (próximas 24 horas)

TLE

AtualizadoSource: Space-Track

Época: Sep 14, 2026, 13:53 UTC

1 39485U 13076C   26257.57856300  .00000114  00000-0  75563-3 0  9997
2 39485  82.4791 112.4395 0020665 278.6616  81.2123 12.42881203576985

Acompanhe COSMOS 2490 em tempo real com AllMySat

Download on the App Store